Weather History for KLGA - February, 2011

Change the Weather History Date:

Sunday, February 27, 2011

  Actual Average Record
Temperature  
Mean Temperature 43 °F 38 °F  
Max Temperature 50 °F 45 °F 73 °F (1997)
Min Temperature 35 °F 30 °F 9 °F (1950)
Degree Days  
Heating Degree Days 22 27  
Month to date heating degree days 776 803  
Since 1 July heating degree days 3339 3402  
Cooling Degree Days 0 0  
Month to date cooling degree days 0 0  
Year to date cooling degree days 0 0  
Moisture  
Dew Point 29 °F    
Average Humidity 64    
Maximum Humidity 92    
Minimum Humidity 36    
Precipitation  
Precipitation 0.00 in 0.11 in 1.79 in (1958)
Month to date precipitation 2.89 2.65  
Year to date precipitation 6.84 5.82  
Snow  
Snow 0.00 in 0.30 in 1.20 in (1979)
Month to date snowfall 4.1 8.9  
Since 1 July snowfall 50.7 21.8  
Snow Depth 0.00 in    
Sea Level Pressure  
Sea Level Pressure 29.98 in    
Wind  
Wind Speed 10 mph (North)    
Max Wind Speed 21 mph    
Max Gust Speed 26 mph    
Visibility 10 miles    
Events      
T = Trace of Precipitation, MM = Missing Value Source: NWS Daily Summary

Daily Weather History Graph

Daily Weather History Graph

Search for Another Location

Airport or City:

Trip Planner

Search our weather history database for the weather conditions in past years. The results will help you decide how hot, cold, wet, or windy it might be!

Date:

Astronomy

Feb. 27, 2011 Rise Set
Actual Time 6:32 AM EST 5:44 PM EST
Civil Twilight 6:05 AM EST 6:11 PM EST
Nautical Twilight 5:33 AM EST 6:43 PM EST
Astronomical Twilight 5:02 AM EST 7:15 PM EST
Moon 3:22 AM EST (2/27) 12:55 PM EST (2/27)
Length of Visible Light 12h 06m
Length of Day
11h 11m
Waning Crescent, 23% of the Moon is Illuminated
Feb 27
Waning Crescent
Mar 4
New
Mar 12
First Quarter
Mar 19
Full
Mar 26
Last Quarter

Hourly Weather History & Observations

Time (EST) Temp. Windchill Dew Point Humidity Pressure Visibility Wind Dir Wind Speed Gust Speed Precip Events Conditions
12:51 AM 37.9 °F 31.5 °F 30.0 °F 73% 29.95 in 10.0 mi South 9.2 mph - N/A   Overcast
1:51 AM 37.9 °F 32.1 °F 30.9 °F 76% 29.92 in 10.0 mi SSE 8.1 mph - N/A   Overcast
2:06 AM 37.4 °F 31.4 °F 30.2 °F 75% 29.91 in 10.0 mi SSE 8.1 mph - N/A   Overcast
2:51 AM 37.9 °F 32.7 °F 32.0 °F 79% 29.88 in 10.0 mi SE 6.9 mph - N/A   Overcast
3:38 AM 39.2 °F - 33.8 °F 81% 29.87 in 10.0 mi Calm Calm - N/A   Overcast
3:51 AM 39.0 °F 35.7 °F 34.0 °F 82% 29.88 in 10.0 mi Variable 4.6 mph - N/A   Overcast
4:51 AM 35.6 °F 29.2 °F 32.0 °F 87% 29.88 in 9.0 mi NE 8.1 mph - N/A   Overcast
5:51 AM 36.0 °F 32.1 °F 32.0 °F 86% 29.89 in 10.0 mi East 4.6 mph - N/A   Overcast
5:59 AM 35.6 °F 30.7 °F 32.0 °F 87% 29.89 in 10.0 mi ENE 5.8 mph - N/A   Overcast
6:51 AM 35.6 °F - 33.8 °F 93% 29.91 in 7.0 mi Calm Calm - N/A   Mostly Cloudy
7:07 AM 39.2 °F 31.2 °F 33.8 °F 81% 29.92 in 8.0 mi WNW 13.8 mph 19.6 mph N/A   Mostly Cloudy
7:51 AM 39.0 °F 31.0 °F 30.9 °F 73% 29.94 in 8.0 mi WNW 13.8 mph - N/A   Mostly Cloudy
8:51 AM 41.0 °F 33.9 °F 30.0 °F 65% 29.96 in 10.0 mi WNW 12.7 mph - N/A   Mostly Cloudy
9:51 AM 42.1 °F 34.2 °F 27.0 °F 55% 29.97 in 10.0 mi NW 16.1 mph 24.2 mph N/A   Mostly Cloudy
10:51 AM 43.0 °F 35.4 °F 26.1 °F 51% 29.98 in 10.0 mi NNW 16.1 mph 24.2 mph N/A   Mostly Cloudy
11:51 AM 45.0 °F 37.9 °F 26.1 °F 48% 30.00 in 10.0 mi NNW 16.1 mph - N/A   Mostly Cloudy
12:51 PM 46.0 °F 39.9 °F 24.1 °F 42% 29.98 in 10.0 mi NNW 13.8 mph - N/A   Mostly Cloudy
1:51 PM 48.0 °F - 25.0 °F 41% 29.98 in 10.0 mi WNW 11.5 mph 19.6 mph N/A   Mostly Cloudy
2:51 PM 48.0 °F - 24.1 °F 39% 29.99 in 10.0 mi WNW 12.7 mph - N/A   Mostly Cloudy
3:51 PM 48.9 °F - 23.0 °F 36% 30.00 in 10.0 mi NW 12.7 mph - N/A   Scattered Clouds
4:51 PM 48.0 °F - 24.1 °F 39% 30.03 in 10.0 mi NW 11.5 mph - N/A   Mostly Cloudy
5:51 PM 45.0 °F 43.5 °F 25.0 °F 46% 30.05 in 10.0 mi North 3.5 mph - N/A   Mostly Cloudy
6:51 PM 44.1 °F 40.8 °F 26.1 °F 49% 30.07 in 10.0 mi East 5.8 mph - N/A   Mostly Cloudy
7:51 PM 46.0 °F 41.9 °F 28.0 °F 50% 30.08 in 10.0 mi ESE 8.1 mph - N/A   Mostly Cloudy
8:51 PM 43.0 °F 37.2 °F 28.0 °F 56% 30.09 in 10.0 mi SE 10.4 mph - N/A   Overcast
9:51 PM 39.9 °F 32.5 °F 32.0 °F 73% 30.10 in 10.0 mi South 12.7 mph 20.7 mph N/A   Overcast
10:51 PM 39.9 °F 33.9 °F 34.0 °F 79% 30.12 in 10.0 mi SE 9.2 mph 18.4 mph N/A   Overcast
11:51 PM 39.9 °F 32.9 °F 35.1 °F 83% 30.11 in 10.0 mi SSE 11.5 mph - N/A   Overcast